Weather History for Fond du Lac, WI

Change the Weather History Date:

Wednesday, June 26, 2013

  Actual Average Record
Temperature  
Mean Temperature 74 °F -  
Max Temperature 82 °F 81 °F 95 °F (1964)
Min Temperature 68 °F 60 °F 46 °F (1982)
Cooling Degree Days 10    
Growing Degree Days 24 (Base 50)    
Moisture  
Dew Point 66 °F    
Average Humidity 78    
Maximum Humidity 90    
Minimum Humidity 60    
Precipitation  
Precipitation 0.00 in - - ()
Sea Level Pressure  
Sea Level Pressure 29.77 in    
Wind  
Wind Speed 6 mph (South)    
Max Wind Speed 13 mph    
Max Gust Speed 17 mph    
Visibility 9 miles    
Events      
Averages and records for this station are not official NWS values.
T = Trace of Precipitation, MM = Missing Value Source: NWS Daily Summary

Daily Weather History Graph

Daily Weather History Graph

Search for Another Location

Airport:

Trip Planner

Search our weather history database for the weather conditions in past years. The results will help you decide how hot, cold, wet, or windy it might be!

Date:

Astronomy

Jun. 26, 2013 Rise Set
Actual Time 5:13 AM CDT 8:40 PM CDT
Civil Twilight 4:37 AM CDT 9:16 PM CDT
Nautical Twilight 3:50 AM CDT 10:03 PM CDT
Astronomical Twilight 2:50 AM CDT 11:02 PM CDT
Moon 10:53 PM CDT (6/26) 9:12 AM CDT (6/26)
Length of Visible Light 16h 38m
Length of Day
15h 26m
Waning Gibbous, 85% of the Moon is Illuminated
Jun 26
Waning Gibbous
Jun 29
Last Quarter
Jul 8
New
Jul 15
First Quarter
Jul 22
Full

Hourly Weather History & Observations

Time (CDT) Temp. Heat Index Dew Point Humidity Pressure Visibility Wind Dir Wind Speed Gust Speed Precip Events Conditions
12:31 AM 69.8 °F - 64.4 °F 83% 29.82 in 10.0 mi South 5.8 mph - N/A   Mostly Cloudy
12:44 AM 69.8 °F - 64.4 °F 83% 29.82 in 10.0 mi South 5.8 mph - N/A   Scattered Clouds
12:53 AM 69.1 °F - 64.9 °F 87% 29.80 in 10.0 mi SSE 4.6 mph - N/A   Scattered Clouds
1:53 AM 69.1 °F - 64.9 °F 87% 29.80 in 10.0 mi SE 5.8 mph - N/A   Mostly Cloudy
2:15 AM 69.8 °F - 64.4 °F 83% 29.80 in 10.0 mi South 3.5 mph - N/A   Mostly Cloudy
2:53 AM 68.0 °F - 64.0 °F 87% 29.78 in 9.0 mi South 3.5 mph - N/A   Scattered Clouds
3:53 AM 68.0 °F - 64.0 °F 87% 29.76 in 10.0 mi SE 5.8 mph - N/A   Clear
4:53 AM 68.0 °F - 64.0 °F 87% 29.75 in 8.0 mi SSE 6.9 mph - N/A   Clear
5:24 AM 68.0 °F - 64.4 °F 88% 29.78 in 6.0 mi South 8.1 mph - N/A   Scattered Clouds
5:33 AM 69.8 °F - 64.4 °F 83% 29.78 in 5.0 mi SSE 9.2 mph - N/A   Mostly Cloudy
5:53 AM 70.0 °F - 66.9 °F 90% 29.77 in 3.0 mi South 8.1 mph - N/A   Overcast
6:25 AM 69.8 °F - 66.2 °F 88% 29.77 in 4.0 mi South 6.9 mph - N/A   Mostly Cloudy
6:53 AM 72.0 °F - 66.9 °F 84% 29.76 in 6.0 mi South 8.1 mph - N/A   Haze
7:53 AM 73.0 °F - 66.0 °F 79% 29.77 in 10.0 mi SSW 5.8 mph - N/A   Clear
8:53 AM 73.0 °F - 66.0 °F 79% 29.78 in 10.0 mi SSW 10.4 mph 17.3 mph N/A   Partly Cloudy
9:21 AM 73.4 °F - 66.2 °F 78% 29.79 in 10.0 mi South 9.2 mph - N/A   Mostly Cloudy
9:36 AM 75.2 °F - 66.2 °F 73% 29.77 in 10.0 mi South 12.7 mph - N/A   Scattered Clouds
9:53 AM 75.0 °F - 66.9 °F 76% 29.75 in 10.0 mi South 10.4 mph - N/A   Partly Cloudy
10:53 AM 78.1 °F - 64.9 °F 64% 29.73 in 10.0 mi Variable 4.6 mph - N/A   Clear
11:53 AM 75.9 °F - 64.9 °F 69% 29.78 in 10.0 mi SW 6.9 mph - N/A   Scattered Clouds
12:53 PM 75.0 °F - 66.0 °F 73% 29.78 in 10.0 mi South 8.1 mph - N/A   Clear
1:48 PM 75.2 °F - 64.4 °F 69% 29.79 in 10.0 mi SW 4.6 mph - N/A   Mostly Cloudy
1:53 PM 75.0 °F - 66.0 °F 73% 29.78 in 10.0 mi South 9.2 mph - N/A   Mostly Cloudy
2:48 PM 78.8 °F - 66.2 °F 65% 29.77 in 10.0 mi South 9.2 mph - N/A   Scattered Clouds
2:53 PM 78.1 °F - 66.9 °F 68% 29.76 in 10.0 mi South 6.9 mph - N/A   Scattered Clouds
3:53 PM 78.1 °F - 66.9 °F 68% 29.76 in 10.0 mi SW 4.6 mph - N/A   Clear
4:53 PM 80.1 °F 82.1 °F 66.0 °F 62% 29.75 in 10.0 mi South 5.8 mph - N/A   Clear
5:53 PM 81.0 °F 83.0 °F 66.0 °F 60% 29.72 in 10.0 mi SSW 4.6 mph - N/A   Clear
6:53 PM 81.0 °F 83.0 °F 66.0 °F 60% 29.72 in 10.0 mi Calm Calm - N/A   Clear
7:53 PM 75.9 °F - 66.0 °F 71% 29.73 in 10.0 mi South 3.5 mph - N/A   Clear
8:53 PM 73.0 °F - 66.0 °F 79% 29.77 in 10.0 mi West 4.6 mph - N/A   Clear
9:53 PM 71.1 °F - 66.9 °F 87% 29.76 in 10.0 mi South 4.6 mph - N/A   Clear
10:53 PM 72.0 °F - 66.0 °F 81% 29.77 in 10.0 mi SE 8.1 mph - N/A   Clear
11:53 PM 70.0 °F - 66.0 °F 87% 29.77 in 10.0 mi South 3.5 mph - N/A   Clear